MICROCARB

Last updated on Thu Oct 30 2025 00:02:32 GMT+0000 (Coordinated Universal Time)

1 64899U 25156A 25302.46641615 .00000995 00000+0 16649-3 0 9991 2 64899 98.0062 18.5162 0015106 291.2349 68.7244 14.71947038 14021
UTC large
Height (km)
Speed (km/s)
/
Latitude / Longitude
Inclination (degrees)
Orbital Period (minutes)
Azimuth
Elevation
Range (km)
Doppler Factor

Next 0 passes for location: London (51.5072 / 0.1276)

Sorry there are no passes over London.